Preston, MN

5:23 PM CST on November 23, 2017 (GMT -0600)
Preston

Weather History for KFKA - October, 2012

Change the Weather History Date:

Sunday, October 7, 2012

  Actual Average (KRST) Record (KRST)
Temperature  
Mean Temperature 40 °F -  
Max Temperature 52 °F 60 °F 84 °F (2011)
Min Temperature 29 °F 39 °F 22 °F (1976)
Degree Days  
Heating Degree Days 24    
Moisture  
Dew Point 17 °F    
Average Humidity 41    
Maximum Humidity 69    
Minimum Humidity 18    
Precipitation  
Precipitation 0.00 in - - ()
Sea Level Pressure  
Sea Level Pressure 30.12 in    
Wind  
Wind Speed 7 mph (WSW)    
Max Wind Speed 16 mph    
Max Gust Speed 25 mph    
Visibility 10 miles    
Events      
Averages and records for this station are not official NWS values.
T = Trace of Precipitation, MM = Missing Value Source: NWS Daily Summary

Daily Weather History Graph

Daily Weather History Graph

Search for Another Location

Airport or City:

Trip Planner

Search our weather history database for the weather conditions in past years. The results will help you decide how hot, cold, wet, or windy it might be!

Date:

Astronomy

Oct. 07, 2012 Rise Set
Actual Time 7:13 AM CDT 6:38 PM CDT
Civil Twilight 6:45 AM CDT 7:06 PM CDT
Nautical Twilight 6:11 AM CDT 7:39 PM CDT
Astronomical Twilight 5:38 AM CDT 8:13 PM CDT
Moon 11:42 PM CDT (10/7) 1:59 PM CDT (10/7)
Length of Visible Light 12h 21m
Length of Day
11h 24m
Waning Gibbous, 56% of the Moon is Illuminated
Oct 7
Waning Gibbous
Oct 8
Last Quarter
Oct 15
New
Oct 21
First Quarter
Oct 29
Full

Hourly Weather History & Observations

Time (CDT) Temp. Windchill Dew Point Humidity Pressure Visibility Wind Dir Wind Speed Gust Speed Precip Events Conditions
12:10 AM 38.7 °F 34.3 °F 22.1 °F 51% 30.22 in 10.0 mi WNW 5.8 mph - N/A   Overcast
12:30 AM 38.7 °F 34.3 °F 22.5 °F 52% 30.22 in 10.0 mi WNW 5.8 mph - N/A   Overcast
12:50 AM 38.8 °F 34.6 °F 22.3 °F 51% 30.21 in 10.0 mi WNW 5.8 mph - N/A   Overcast
1:10 AM 38.8 °F 34.6 °F 22.1 °F 51% 30.21 in 10.0 mi WNW 5.8 mph - N/A   Overcast
1:30 AM 38.3 °F 33.9 °F 22.8 °F 54% 30.21 in 10.0 mi WNW 5.8 mph - N/A   Overcast
1:50 AM 38.3 °F 33.9 °F 21.9 °F 52% 30.21 in 10.0 mi West 5.8 mph - N/A   Overcast
2:10 AM 37.9 °F 32.7 °F 22.1 °F 53% 30.21 in 10.0 mi WNW 6.9 mph - N/A   Overcast
2:30 AM 38.3 °F 33.2 °F 22.1 °F 52% 30.21 in 10.0 mi West 6.9 mph - N/A   Overcast
2:50 AM 37.4 °F 32.1 °F 21.9 °F 54% 30.20 in 10.0 mi WNW 6.9 mph - N/A   Overcast
3:10 AM 36.7 °F 31.2 °F 22.1 °F 56% 30.20 in 10.0 mi WNW 6.9 mph - N/A   Overcast
3:50 AM 33.1 °F 27.7 °F 21.6 °F 63% 30.19 in 10.0 mi WNW 5.8 mph - N/A   Scattered Clouds
4:10 AM 32.7 °F 25.0 °F 21.7 °F 64% 30.19 in 10.0 mi WNW 9.2 mph - N/A   Clear
4:30 AM 32.0 °F 25.6 °F 21.2 °F 64% 30.19 in 10.0 mi WNW 6.9 mph - N/A   Clear
4:50 AM 31.8 °F 24.6 °F 21.0 °F 64% 30.19 in 10.0 mi WNW 8.1 mph - N/A   Clear
5:10 AM 31.1 °F 24.5 °F 20.8 °F 66% 30.19 in 10.0 mi WNW 6.9 mph - N/A   Clear
5:30 AM 30.7 °F 23.3 °F 20.3 °F 65% 30.19 in 10.0 mi WNW 8.1 mph - N/A   Clear
5:50 AM 30.2 °F 25.4 °F 20.5 °F 67% 30.18 in 10.0 mi WNW 4.6 mph - N/A   Clear
6:10 AM 30.2 °F 25.4 °F 20.3 °F 67% 30.19 in 10.0 mi West 4.6 mph - N/A   Clear
6:30 AM 29.7 °F 24.7 °F 19.9 °F 67% 30.19 in 10.0 mi West 4.6 mph - N/A   Clear
6:51 AM 29.8 °F 26.3 °F 20.3 °F 68% 30.18 in 10.0 mi West 3.5 mph - N/A   Clear
7:10 AM 29.3 °F 24.3 °F 20.1 °F 69% 30.18 in 10.0 mi West 4.6 mph - N/A   Clear
7:30 AM 29.3 °F 25.6 °F 20.1 °F 69% 30.19 in 10.0 mi West 3.5 mph - N/A   Clear
7:50 AM 30.4 °F - 20.7 °F 67% 30.19 in 10.0 mi Calm Calm - N/A   Clear
8:10 AM 32.2 °F 28.9 °F 22.3 °F 67% 30.19 in 10.0 mi West 3.5 mph - N/A   Clear
8:30 AM 34.7 °F 30.6 °F 23.4 °F 63% 30.19 in 10.0 mi West 4.6 mph - N/A   Clear
8:50 AM 36.5 °F 32.7 °F 23.4 °F 59% 30.19 in 10.0 mi West 4.6 mph - N/A   Clear
9:10 AM 38.1 °F 33.7 °F 23.2 °F 55% 30.20 in 10.0 mi West 5.8 mph - N/A   Clear
9:30 AM 40.3 °F 35.5 °F 22.8 °F 50% 30.20 in 10.0 mi West 6.9 mph - N/A   Clear
9:50 AM 42.8 °F 38.6 °F 22.6 °F 45% 30.19 in 10.0 mi West 6.9 mph - N/A   Clear
10:10 AM 43.9 °F 39.3 °F 21.4 °F 41% 30.19 in 10.0 mi West 8.1 mph - N/A   Clear
10:30 AM 44.8 °F 39.9 °F 20.1 °F 37% 30.19 in 10.0 mi West 9.2 mph - N/A   Clear
10:50 AM 45.9 °F 40.8 °F 19.0 °F 34% 30.18 in 10.0 mi WSW 10.4 mph - N/A   Clear
11:10 AM 46.6 °F - 17.1 °F 31% 30.18 in 10.0 mi SW 9.2 mph 18.4 mph N/A   Clear
11:30 AM 47.3 °F - 16.0 °F 29% 30.18 in 10.0 mi WSW 11.5 mph 19.6 mph N/A   Clear
11:51 AM 47.3 °F - 15.4 °F 28% 30.17 in 10.0 mi West 9.2 mph 19.6 mph N/A   Clear
12:10 PM 47.5 °F - 15.4 °F 28% 30.17 in 10.0 mi West 15.0 mph 25.3 mph N/A   Clear
12:30 PM 49.1 °F - 14.5 °F 25% 30.16 in 10.0 mi West 8.1 mph - N/A   Clear
12:50 PM 49.3 °F - 14.0 °F 24% 30.15 in 10.0 mi WSW 12.7 mph 17.3 mph N/A   Clear
1:30 PM 50.0 °F - 13.1 °F 23% 30.13 in 10.0 mi SW 11.5 mph 25.3 mph N/A   Clear
1:50 PM 51.3 °F - 11.7 °F 21% 30.12 in 10.0 mi West 10.4 mph 20.7 mph N/A   Clear
2:10 PM 50.9 °F - 11.3 °F 20% 30.10 in 10.0 mi WSW 11.5 mph 18.4 mph N/A   Clear
2:30 PM 51.1 °F - 10.2 °F 19% 30.10 in 10.0 mi West 13.8 mph - N/A   Clear
2:50 PM 51.8 °F - 9.9 °F 19% 30.09 in 10.0 mi WSW 16.1 mph 20.7 mph N/A   Clear
3:10 PM 52.0 °F - 10.0 °F 19% 30.09 in 10.0 mi WSW 9.2 mph 16.1 mph N/A   Clear
3:30 PM 52.0 °F - 9.7 °F 18% 30.07 in 10.0 mi West 11.5 mph 19.6 mph N/A   Clear
3:50 PM 51.8 °F - 10.0 °F 19% 30.07 in 10.0 mi SW 13.8 mph - N/A   Clear
4:10 PM 51.8 °F - 10.6 °F 19% 30.06 in 10.0 mi SW 11.5 mph 18.4 mph N/A   Clear
4:31 PM 52.2 °F - 11.5 °F 20% 30.05 in 10.0 mi SW 15.0 mph - N/A   Clear
4:50 PM 51.8 °F - 10.6 °F 19% 30.05 in 10.0 mi WSW 13.8 mph 19.6 mph N/A   Clear
5:10 PM 51.8 °F - 11.1 °F 20% 30.04 in 10.0 mi SSW 11.5 mph - N/A   Clear
5:30 PM 51.3 °F - 11.7 °F 21% 30.04 in 10.0 mi SW 12.7 mph - N/A   Clear
5:50 PM 50.9 °F - 12.4 °F 21% 30.04 in 10.0 mi SW 10.4 mph - N/A   Clear
6:10 PM 50.0 °F - 12.2 °F 22% 30.03 in 10.0 mi SW 5.8 mph - N/A   Clear
6:30 PM 48.2 °F - 13.1 °F 24% 30.02 in 10.0 mi SSW 5.8 mph - N/A   Clear
6:50 PM 46.9 °F - 13.1 °F 26% 30.02 in 10.0 mi South 5.8 mph - N/A   Clear
7:10 PM 45.7 °F 42.7 °F 13.1 °F 27% 30.02 in 7.0 mi South 5.8 mph - N/A   Clear
7:30 PM 44.8 °F 42.4 °F 13.5 °F 28% 30.02 in 10.0 mi SSW 4.6 mph - N/A   Clear
7:50 PM 43.9 °F 41.3 °F 14.2 °F 30% 30.02 in 10.0 mi SSW 4.6 mph - N/A   Clear
8:10 PM 43.0 °F 39.5 °F 14.9 °F 32% 30.02 in 10.0 mi SSW 5.8 mph - N/A   Clear
8:30 PM 42.1 °F 38.4 °F 15.8 °F 35% 30.02 in 10.0 mi SSW 5.8 mph - N/A   Clear
8:51 PM 42.1 °F 38.4 °F 15.8 °F 35% 30.01 in 10.0 mi SSW 5.8 mph - N/A   Clear
9:10 PM 41.9 °F 39.0 °F 15.8 °F 35% 30.01 in 10.0 mi SSW 4.6 mph - N/A   Clear
9:30 PM 41.4 °F 36.8 °F 16.5 °F 37% 30.01 in 10.0 mi SSW 6.9 mph - N/A   Clear
9:51 PM 41.9 °F 36.9 °F 17.1 °F 37% 30.01 in 10.0 mi SSW 8.1 mph - N/A   Clear
10:10 PM 42.3 °F 36.8 °F 17.2 °F 37% 30.01 in 10.0 mi SSW 9.2 mph - N/A   Clear
10:31 PM 42.3 °F 36.8 °F 17.4 °F 37% 30.00 in 10.0 mi SSW 9.2 mph - N/A   Clear
10:50 PM 42.3 °F 35.9 °F 17.6 °F 37% 30.00 in 10.0 mi SSW 11.5 mph - N/A   Clear
11:10 PM 42.4 °F 37.0 °F 17.6 °F 37% 30.00 in 10.0 mi SSW 9.2 mph - N/A   Clear
11:31 PM 42.3 °F 36.8 °F 18.0 °F 38% 29.99 in 10.0 mi SSW 9.2 mph - N/A   Clear
11:50 PM 42.1 °F 35.7 °F 18.1 °F 38% 29.99 in 10.0 mi SSW 11.5 mph - N/A   Clear